Location: Wald
(31.7579°N, 86.6655°W)
Time: 20:22:18
(UTC+00:00)

Cosmos 1092 Rocket - Pass Details

Date: 14 July 2020
Orbit: 954 x 995 km, 83.0° (Epoch: 13 August)

Event Time Altitude Azimuth Distance (km) Brightness Sun altitude
Rises 09:54:31 0° 354° (N) 3,712 7.5 -11.3°
Reaches altitude 10° 09:57:04 10° 355° (N) 2,757 6.8 -10.9°
Maximum altitude 10:03:25 86° 85° (E) 992 4.1 -9.7°
Drops below altitude 10° 10:09:40 10° 174° (S) 2,719 6.1 -8.6°
Sets 10:12:09 0° 175° (S) 3,658 6.7 -8.2°
